Location: Acts Church of Fort Worth
(32.6786°N, 97.2668°W)
Time: 23:00:10
(UTC+00:00)

Resurs 1-3 - Pass Details

Date: 18 January 2026
Orbit: 612 x 615 km, 97.7° (Epoch: 13 February)

Event Time Altitude Azimuth Distance (km) Brightness Sun altitude
Rises 00:27:14 0° 146° (SE) 2,870 6.8 -8.5°
Reaches altitude 10° 00:29:34 10° 137° (SE) 1,969 5.9 -9.0°
Maximum altitude 00:33:24 33° 73° (ENE) 1,040 4.2 -9.8°
Drops below altitude 10° 00:37:16 10° 9° (N) 1,979 5.9 -10.5°
Sets 00:39:36 0° 0° (N) 2,888 6.8 -11.0°
